This is the latest recevied weather packets stored in our database for station/object EA6AMI-5. If no packets are shown the sender has not sent any weather packets the latest 10 day(s).
| Time | Temp. | Humidity | Pressure | Rain* | Wind** | Luminosity | Snow |
|---|---|---|---|---|---|---|---|
| 1788125223 | 23.33° C | 75% | 1018.3 hPa | 0 mm | - | 0 W/m² | - |
| 1788124683 | 23.33° C | 75% | 1018.1 hPa | 0 mm | - | 0 W/m² | - |
| 1788124143 | 23.89° C | 74% | 1018.1 hPa | 0 mm | - | 0 W/m² | - |
| 1788123603 | 23.89° C | 74% | 1018.1 hPa | 0 mm | - | 0 W/m² | - |
| 1788123243 | 23.89° C | 74% | 1018.1 hPa | 0 mm | - | 0 W/m² | - |
| 1788122703 | 23.89° C | 73% | 1018.2 hPa | 0 mm | - | 0 W/m² | - |
| 1788122163 | 23.89° C | 74% | 1018 hPa | 0 mm | - | 0 W/m² | - |
| 1788121623 | 24.44° C | 74% | 1018.1 hPa | 0 mm | - | 0 W/m² | - |
| 1788121083 | 24.44° C | 77% | 1018.1 hPa | 0 mm | - | 0 W/m² | - |
| 1788120543 | 24.44° C | 72% | 1017.8 hPa | 0 mm | - | 0 W/m² | - |
| 1788120003 | 24.44° C | 76% | 1018 hPa | 0 mm | - | 0 W/m² | - |
| 1788119643 | 24.44° C | 76% | 1017.7 hPa | 0 mm | - | 0 W/m² | - |
| 1788119103 | 25° C | 77% | 1017.8 hPa | 0 mm | - | 0 W/m² | - |
| 1788118563 | 25° C | 76% | 1017.8 hPa | 0 mm | - | 0 W/m² | - |
| 1788118023 | 25° C | 76% | 1017.6 hPa | 0 mm | - | 0 W/m² | - |
| 1788117483 | 25° C | 74% | 1017.4 hPa | 0 mm | - | 0 W/m² | - |
| 1788116943 | 25.56° C | 73% | 1017.3 hPa | 0 mm | - | 0 W/m² | - |
| 1788116403 | 25.56° C | 70% | 1017.2 hPa | 0 mm | - | 0 W/m² | - |
| 1788116043 | 25.56° C | 69% | 1017.2 hPa | 0 mm | - | 0 W/m² | - |
| 1788115503 | 26.11° C | 67% | 1017.1 hPa | 0 mm | - | 0 W/m² | - |
| 1788114963 | 26.11° C | 66% | 1016.9 hPa | 0 mm | - | 0 W/m² | - |
| 1788114423 | 26.11° C | 65% | 1016.9 hPa | 0 mm | - | 2 W/m² | - |
| 1788113883 | 26.67° C | 65% | 1016.9 hPa | 0 mm | - | 5 W/m² | - |
| 1788113343 | 26.67° C | 65% | 1016.8 hPa | 0 mm | - | 9 W/m² | - |
| 1788112803 | 27.22° C | 63% | 1016.9 hPa | 0 mm | - | 14 W/m² | - |
* Rain latest hour (hover to see other rain measurements)
** Current wind speed in m/s (hover to see current wind gust speed)